Hulianwang W. Digui 10-02

operational
NORAD ID: 65306 Int'l Des: 2025-187 Owner: ZXW Country: CN Constellation: xingwang
LEOCIRCULAR

About Hulianwang W. Digui 10-02

Description loading...

Live Position

Loading 3D Globe...

Upcoming Passes

Altitude History

Altitude vs Time

uPlot chart will show altitude changes over time

Two-Line Element Set

1 65306U 25187B 25314.89587148 -.00000045 00000-0 15472-3 0 9990
2 65306 50.0089 268.8338 0001284 277.0748 82.9982 13.37688839 10669
Epoch: Nov 10, 2025 • Age: 36 hours

Current Status

Altitude 1118.8 km
Velocity 7.30 km/s
Sub-Earth Point 24.60°N, 91.2°E
Launch Date Aug 25, 2025
Age 0.2 years
Type other

Technical Details

Classification Payload
Mass 800.00 kg
Dry Mass 800.00 kg
Total Mass 800.00 kg
Length 3.00 m
Diameter 1.00 m
Span 10.00 m
Shape Box + 2 Pan
Manufacturer SECM
Bus Type Guowang S
Phase Status In Orbit
Owner/State ZXW/CN

Large Constellations

Loading constellations...